7M1JBF-13 Weather Reports


Display with metric or nautical units.
time (UTC)temp
F
wind
direction
speed
MPH
gust
MPH
rain 1hr
in
rain 24hr
in
rain mn
in
humidity
%
barometer
mb
20260509234339 68 255 0.0 2.0 0.00 0.00 0.00 47 1021.2
20260509233333 66 284 0.0 4.0 0.00 0.00 0.00 49 1021.2
20260509232334 66 286 0.0 1.0 0.00 0.00 0.00 52 1021.2
20260509231337 65 286 0.0 2.0 0.00 0.00 0.00 53 1021.3
20260509230401 64 283 0.0 1.0 0.00 0.00 0.00 61 1021.2
20260509225343 62 283 0.0 1.0 0.00 0.00 0.00 60 1021.2
20260509224406 61 283 0.0 0.0 0.00 0.00 0.00 65 1021.3
20260509223346 58 284 0.0 0.0 0.00 0.00 0.00 72 1021.2
20260509222348 54 284 0.0 0.0 0.00 0.00 0.00 81 1021.3
20260509221341 51 283 0.0 0.0 0.00 0.00 0.00 87 1021.3
20260509220405 49 283 0.0 0.0 0.00 0.00 0.00 91 1021.3
20260509215326 49 283 0.0 0.0 0.00 0.00 0.00 92 1021.3
20260509214328 48 283 0.0 0.0 0.00 0.00 0.00 92 1021.3
20260509213332 47 283 0.0 0.0 0.00 0.00 0.00 92 1021.3
20260509212334 47 283 0.0 0.0 0.00 0.00 0.00 93 1021.0
20260509211340 46 283 0.0 0.0 0.00 0.00 0.00 94 1021.0
20260509210401 45 284 0.0 0.0 0.00 0.00 0.00 94 1021.0
20260509205340 45 283 0.0 0.0 0.00 0.00 0.00 94 1020.9
20260509204339 44 283 0.0 0.0 0.00 0.00 0.00 94 1020.7
20260509203406 43 283 0.0 0.0 0.00 0.00 0.00 94 1020.7
20260509202347 43 283 0.0 0.0 0.00 0.00 0.00 94 1020.5
20260509201354 42 283 0.0 0.0 0.00 0.00 0.00 93 1020.3
20260509200328 42 283 0.0 1.0 0.00 0.00 0.00 93 1020.1
20260509195335 42 283 0.0 0.0 0.00 0.00 0.00 93 1020.1
20260509194338 42 283 0.0 0.0 0.00 0.00 0.00 93 1019.6
20260509193401 42 283 0.0 0.0 0.00 0.00 0.00 93 1019.5
20260509192338 42 283 0.0 0.0 0.00 0.00 0.00 93 1019.3
20260509191341 43 283 0.0 0.0 0.00 0.00 0.00 93 1019.2
20260509190344 43 284 0.0 0.0 0.00 0.00 0.00 92 1019.1
20260509185326 43 283 0.0 0.0 0.00 0.00 0.00 92 1018.9
20260509184352 43 283 0.0 0.0 0.00 0.00 0.00 92 1018.8
20260509183337 43 283 0.0 0.0 0.00 0.00 0.00 92 1018.8
20260509182404 43 284 0.0 1.0 0.00 0.00 0.00 92 1018.7
20260509181328 43 284 0.0 0.0 0.00 0.00 0.00 92 1018.6
20260509180336 43 283 0.0 0.0 0.00 0.00 0.00 92 1018.7
20260509175338 43 283 0.0 0.0 0.00 0.00 0.00 92 1018.5
20260509174406 43 283 0.0 0.0 0.00 0.00 0.00 92 1018.6
20260509173410 43 283 0.0 0.0 0.00 0.00 0.00 92 1018.6
20260509172329 43 283 0.0 0.0 0.00 0.00 0.00 92 1018.5
20260509171333 43 283 0.0 0.0 0.00 0.00 0.00 92 1018.4
20260509170400 43 283 0.0 0.0 0.00 0.00 0.00 92 1018.3
20260509165405 43 283 0.0 0.0 0.00 0.00 0.00 92 1018.2
20260509164349 43 283 0.0 0.0 0.00 0.00 0.00 92 1018.1
20260509163326 43 283 0.0 0.0 0.00 0.00 0.00 91 1018.0
20260509162348 43 283 0.0 0.0 0.00 0.00 0.00 91 1017.9
20260509161332 44 283 0.0 0.0 0.00 0.00 0.00 91 1018.0
20260509160336 44 283 0.0 0.0 0.00 0.00 0.00 90 1018.0
20260509155403 44 283 0.0 0.0 0.00 0.00 0.00 90 1018.0
20260509154347 44 283 0.0 0.0 0.00 0.00 0.00 90 1018.0
20260509153333 44 283 0.0 0.0 0.00 0.00 0.00 89 1017.9
20260509152333 44 283 0.0 0.0 0.00 0.00 0.00 90 1017.6
20260509151336 44 283 0.0 0.0 0.00 0.00 0.00 89 1017.5
20260509150343 44 283 0.0 0.0 0.00 0.31 0.00 89 1017.4
20260509145344 45 283 0.0 0.0 0.00 0.31 0.00 88 1017.4
20260509144346 45 284 0.0 0.0 0.00 0.31 0.00 88 1017.3
20260509143351 45 283 0.0 0.0 0.00 0.31 0.00 87 1017.2
20260509142354 45 283 0.0 0.0 0.00 0.31 0.00 87 1017.1
20260509141341 46 284 0.0 0.0 0.00 0.31 0.00 86 1017.1
20260509140344 46 283 0.0 0.0 0.00 1.77 0.00 85 1017.1
20260509135348 46 283 0.0 0.0 0.00 1.77 0.00 84 1017.0
20260509134345 47 283 0.0 0.0 0.00 1.77 0.00 83 1016.9
20260509133328 47 283 0.0 0.0 0.00 1.77 0.00 83 1016.8
20260509132327 48 283 0.0 1.0 0.00 1.77 0.00 82 1016.6
20260509131328 48 305 0.0 1.0 0.00 1.77 0.00 81 1016.6
20260509130332 49 305 0.0 0.0 0.00 2.17 0.00 78 1016.5
20260509125355 49 305 0.0 1.0 0.00 2.17 0.00 78 1016.4
20260509124334 50 305 0.0 1.0 0.00 2.17 0.00 77 1016.4
20260509123336 51 305 0.0 0.0 0.00 2.17 0.00 75 1016.5
20260509122335 51 305 0.0 1.0 0.00 2.17 0.00 73 1016.5
20260509121340 51 305 0.0 1.0 0.00 2.17 0.00 71 1016.4
20260509120343 52 305 0.0 1.0 0.00 2.17 0.00 72 1016.4
20260509115327 53 305 0.0 1.0 0.00 2.17 0.00 71 1016.3
20260509114331 53 306 0.0 2.0 0.00 2.17 0.00 66 1016.1
20260509113333 53 303 0.0 1.0 0.00 2.17 0.00 70 1015.7
20260509112340 52 303 0.0 1.0 0.00 2.17 0.00 72 1015.5
20260509111344 52 303 0.0 0.0 0.00 2.17 0.00 76 1015.3
20260509110329 52 303 0.0 0.0 0.00 2.17 0.00 73 1015.4
20260509105331 53 303 0.0 0.0 0.00 2.17 0.00 72 1015.3
20260509104329 54 303 0.0 1.0 0.00 2.17 0.00 71 1015.2
20260509103334 55 303 0.0 2.0 0.00 2.17 0.00 68 1015.1
20260509102336 55 278 0.0 1.0 0.00 2.17 0.00 67 1015.0
20260509101339 56 277 0.0 1.0 0.00 2.17 0.00 67 1014.8
20260509100341 57 277 0.0 1.0 0.00 2.17 0.00 65 1014.5
20260509095343 59 277 0.0 1.0 0.00 2.17 0.00 56 1014.3
20260509094346 61 278 0.0 0.0 0.00 2.17 0.00 57 1014.1
20260509093343 62 277 0.0 3.0 0.00 2.17 0.00 44 1013.9
20260509092345 62 272 0.0 1.0 0.00 2.17 0.00 47 1013.7
20260509091329 63 261 0.0 7.0 0.00 2.17 0.00 46 1013.4
20260509090333 63 282 1.0 5.0 0.00 2.17 0.00 41 1013.4
20260509085356 64 289 0.0 3.0 0.00 2.17 0.00 48 1013.2
20260509084337 64 268 0.0 5.0 0.00 2.17 0.00 43 1013.1
20260509083340 65 276 0.0 1.0 0.00 2.17 0.00 51 1013.1
20260509082400 66 276 0.0 4.0 0.00 2.17 0.00 43 1012.9
20260509081342 68 251 0.0 4.0 0.00 2.17 0.00 41 1013.1
20260509080327 68 251 1.0 10.0 0.00 2.17 0.00 39 1012.8
20260509075333 69 246 0.0 7.0 0.00 2.17 0.00 40 1012.5
20260509074335 69 299 1.0 7.0 0.00 2.17 0.00 37 1012.7
20260509073335 70 268 1.0 8.0 0.00 2.17 0.00 38 1012.4
20260509072340 70 12 2.0 4.0 0.00 2.17 0.00 36 1012.5
20260509071342 70 260 1.0 7.0 0.00 2.17 0.00 38 1012.1
20260509070344 70 109 1.0 8.0 0.00 2.17 0.00 39 1012.2
20260509065339 70 286 3.0 12.0 0.00 2.17 0.00 36 1012.1
20260509064340 70 251 1.0 12.0 0.00 2.17 0.00 37 1012.1
20260509063339 70 254 2.0 8.0 0.00 2.17 0.00 36 1012.0
20260509062343 70 232 4.0 9.0 0.00 2.17 0.00 35 1011.9
20260509061405 70 275 3.0 8.0 0.00 2.17 0.00 34 1011.8
20260509060344 70 200 5.0 12.0 0.00 2.17 0.00 38 1011.9
20260509055347 70 158 5.0 15.0 0.00 2.17 0.00 36 1011.8
20260509054347 70 195 4.0 12.0 0.00 2.17 0.00 34 1011.4
20260509053405 71 106 1.0 10.0 0.00 2.17 0.00 45 1011.6
20260509052327 70 241 2.0 13.0 0.00 2.17 0.00 42 1011.5
20260509051328 71 289 3.0 9.0 0.00 2.17 0.00 44 1011.5
20260509050327 71 16 2.0 8.0 0.00 2.17 0.00 43 1011.5
20260509045329 71 253 3.0 9.0 0.00 2.17 0.00 45 1011.3
20260509044329 71 241 2.0 7.0 0.00 2.17 0.00 45 1011.4
20260509043352 71 275 3.0 10.0 0.00 2.17 0.00 44 1011.4
20260509042356 72 261 1.0 7.0 0.00 2.17 0.00 46 1011.1
20260509041334 72 281 2.0 6.0 0.00 2.17 0.00 44 1011.1
20260509040336 70 214 2.0 10.0 0.00 2.17 0.00 46 1011.1
20260509035339 70 222 2.0 13.0 0.00 2.17 0.00 44 1011.3
20260509034402 70 272 0.0 13.0 0.00 2.17 0.00 46 1011.1
20260509033342 70 163 3.0 11.0 0.00 2.17 0.00 40 1010.9
20260509032406 70 219 3.0 16.0 0.00 2.17 0.00 42 1010.9
20260509031346 71 253 2.0 9.0 0.00 2.17 0.00 42 1010.8
20260509030404 70 257 1.0 14.0 0.00 2.17 0.00 44 1010.8
20260509025344 70 269 2.0 9.0 0.00 2.17 0.00 44 1010.8
20260509024346 71 273 3.0 11.0 0.00 2.17 0.00 42 1010.7
20260509023329 70 96 1.0 10.0 0.00 2.17 0.00 44 1010.6
20260509022330 69 260 1.0 7.0 0.00 2.17 0.00 47 1010.5
20260509021332 69 47 2.0 8.0 0.00 2.17 0.00 46 1010.8
20260509020356 69 253 2.0 8.0 0.00 2.17 0.00 47 1010.7
20260509015337 68 138 1.0 9.0 0.00 2.17 0.00 48 1011.0
20260509014338 67 241 5.0 11.0 0.00 2.17 0.00 46 1011.0
20260509013343 67 237 3.0 10.0 0.00 2.17 0.00 48 1010.9
20260509012340 68 260 2.0 7.0 0.00 2.17 0.00 49 1011.0
20260509011340 68 234 1.0 8.0 0.00 2.17 0.00 54 1010.9
20260509010341 68 244 1.0 5.0 0.00 2.17 0.00 57 1010.5
20260509005341 66 272 1.0 12.0 0.00 2.17 0.00 56 1010.2
20260509004345 65 276 2.0 6.0 0.00 2.17 0.00 59 1010.1
20260509003345 64 167 1.0 7.0 0.00 2.17 0.00 65 1009.8
20260509002350 64 236 1.0 3.0 0.00 2.17 0.00 62 1009.4
20260509001330 64 307 0.0 2.0 0.00 2.17 0.00 70 1009.1
20260509000327 65 270 0.0 6.0 0.00 2.17 0.00 60 1009.1
20260508235330 66 286 2.0 8.0 0.00 2.17 0.00 54 1008.8